,,Stat6,,Stat2,,Stat8,,Stat9,,Stat10,,Wind1,,Wind1
time,status,PA1M_AVG,status,PR1M_SUM,status,RH1M_AVG,status,SR1M_AVG,status,TA1M_AVG,status,W1dAve1m,status,W1sAve1m
2009-05-21, 00:00:00,VALID,917.235,VALID,0,VALID,100,VALID,-0.0679233,VALID,18.0982,VALID,143,VALID,0
2009-05-21, 00:01:00,VALID,917.213,VALID,0,VALID,100,VALID,-0.0509425,VALID,18.0881,VALID,151,VALID,0
2009-05-21, 00:02:00,VALID,917.196,VALID,0,VALID,100,VALID,-0.101885,VALID,18.0656,VALID,153,VALID,0
2009-05-21, 00:03:00,VALID,917.17,VALID,0,VALID,100,VALID,-0.0679233,VALID,18.026,VALID,150,VALID,0
2009-05-21, 00:04:00,VALID,917.158,VALID,0,VALID,100,VALID,-0.0679233,VALID,18.02,VALID,148,VALID,0
2009-05-21, 00:05:00,VALID,917.164,VALID,0,VALID,100,VALID,-0.0169808,VALID,17.9905,VALID,153,VALID,0
2009-05-21, 00:06:00,VALID,917.16,VALID,0,VALID,100,VALID,-0.0509425,VALID,17.9674,VALID,165,VALID,0
2009-05-21, 00:07:00,VALID,917.155,VALID,0,VALID,100,VALID,-0.0679233,VALID,18.0104,VALID,165,VALID,0
2009-05-21, 00:08:00,VALID,917.152,VALID,0,VALID,100,VALID,-0.0339617,VALID,18.023,VALID,159,VALID,0
2009-05-21, 00:09:00,VALID,917.153,VALID,0,VALID,100,VALID,-0.0339617,VALID,17.9546,VALID,154,VALID,0
2009-05-21, 00:10:00,VALID,917.149,VALID,0,VALID,100,VALID,-0.0679233,VALID,17.9062,VALID,153,VALID,0
2009-05-21, 00:11:00,VALID,917.145,VALID,0,VALID,100,VALID,-0.0679233,VALID,17.8935,VALID,153,VALID,0
2009-05-21, 00:12:00,VALID,917.154,VALID,0,VALID,100,VALID,-0.0679233,VALID,17.9058,VALID,153,VALID,0
2009-05-21, 00:13:00,VALID,917.136,VALID,0,VALID,100,VALID,-0.0509425,VALID,17.9289,VALID,152,VALID,0
2009-05-21, 00:14:00,VALID,917.135,VALID,0,VALID,100,VALID,-0.0849042,VALID,17.8995,VALID,141,VALID,0
2009-05-21, 00:15:00,VALID,917.124,VALID,0,VALID,100,VALID,-0.0339617,VALID,17.9257,VALID,132,VALID,0
2009-05-21, 00:16:00,VALID,917.13,VALID,0,VALID,100,VALID,-0.0169808,VALID,17.9384,VALID,132,VALID,0.0517805
2009-05-21, 00:17:00,VALID,917.131,VALID,0,VALID,100,VALID,-0.0509425,VALID,17.9445,VALID,122,VALID,0
2009-05-21, 00:18:00,VALID,917.129,VALID,0,VALID,100,VALID,-0.0509425,VALID,17.9227,VALID,123,VALID,0
2009-05-21, 00:19:00,VALID,917.126,VALID,0,VALID,100,VALID,-0.0169808,VALID,17.9157,VALID,135,VALID,0
2009-05-21, 00:20:00,VALID,917.131,VALID,0,VALID,100,VALID,-0.0169808,VALID,17.9227,VALID,145,VALID,0
2009-05-21, 00:21:00,VALID,917.129,VALID,0,VALID,100,VALID,-0.0679233,VALID,17.9419,VALID,141,VALID,0
2009-05-21, 00:22:00,VALID,917.133,VALID,0,VALID,100,VALID,-0.0509425,VALID,17.9125,VALID,135,VALID,0
2009-05-21, 00:23:00,VALID,917.136,VALID,0,VALID,100,VALID,-0.101885,VALID,17.8578,VALID,138,VALID,0
2009-05-21, 00:24:00,VALID,917.131,VALID,0,VALID,100,VALID,-0.0509425,VALID,17.8059,VALID,142,VALID,0
2009-05-21, 00:25:00,VALID,917.135,VALID,0,VALID,100,VALID,-0.101885,VALID,17.7929,VALID,142,VALID,0
2009-05-21, 00:26:00,VALID,917.148,VALID,0,VALID,100,VALID,-0.101885,VALID,17.78,VALID,139,VALID,0
2009-05-21, 00:27:00,VALID,917.144,VALID,0,VALID,100,VALID,-0.101885,VALID,17.7607,VALID,139,VALID,0
2009-05-21, 00:28:00,VALID,917.143,VALID,0,VALID,100,VALID,-0.101885,VALID,17.7378,VALID,140,VALID,0
2009-05-21, 00:29:00,VALID,917.153,VALID,0,VALID,100,VALID,-0.0849042,VALID,17.767,VALID,140,VALID,0
2009-05-21, 00:30:00,VALID,917.151,VALID,0,VALID,100,VALID,-0.0679233,VALID,17.7997,VALID,141,VALID,0
2009-05-21, 00:31:00,VALID,917.137,VALID,0,VALID,100,VALID,-0.0849042,VALID,17.7901,VALID,144,VALID,0
2009-05-21, 00:32:00,VALID,917.132,VALID,0,VALID,100,VALID,-0.0849042,VALID,17.7735,VALID,150,VALID,0
2009-05-21, 00:33:00,VALID,917.134,VALID,0,VALID,100,VALID,-0.0339617,VALID,17.7434,VALID,156,VALID,0
2009-05-21, 00:34:00,VALID,917.137,VALID,0,VALID,100,VALID,-0.0849042,VALID,17.7501,VALID,156,VALID,0
2009-05-21, 00:35:00,VALID,917.124,VALID,0,VALID,100,VALID,-0.0849042,VALID,17.78,VALID,154,VALID,0
2009-05-21, 00:36:00,VALID,917.123,VALID,0,VALID,100,VALID,-0.0679233,VALID,17.7862,VALID,145,VALID,0
2009-05-21, 00:37:00,VALID,917.109,VALID,0,VALID,100,VALID,-0.0679233,VALID,17.7733,VALID,144,VALID,0
2009-05-21, 00:38:00,VALID,917.105,VALID,0,VALID,100,VALID,-0.101885,VALID,17.7702,VALID,126,VALID,0
2009-05-21, 00:39:00,VALID,917.097,VALID,0,VALID,100,VALID,-0.0849042,VALID,17.7605,VALID,116,VALID,0
2009-05-21, 00:40:00,VALID,917.104,VALID,0,VALID,100,VALID,-0.0679233,VALID,17.7531,VALID,121,VALID,0
2009-05-21, 00:41:00,VALID,917.119,VALID,0,VALID,100,VALID,-0.0679233,VALID,17.7635,VALID,139,VALID,0
2009-05-21, 00:42:00,VALID,917.126,VALID,0,VALID,100,VALID,-0.101885,VALID,17.764,VALID,143,VALID,0
2009-05-21, 00:43:00,VALID,917.12,VALID,0,VALID,100,VALID,-0.0679233,VALID,17.7339,VALID,156,VALID,0
2009-05-21, 00:44:00,VALID,917.119,VALID,0,VALID,100,VALID,-0.0849042,VALID,17.7408,VALID,152,VALID,0.0483631
2009-05-21, 00:45:00,VALID,917.11,VALID,0,VALID,100,VALID,-0.0169808,VALID,17.7339,VALID,149,VALID,0
2009-05-21, 00:46:00,VALID,917.111,VALID,0,VALID,100,VALID,-0.0849042,VALID,17.7211,VALID,149,VALID,0.0010016
2009-05-21, 00:47:00,VALID,917.108,VALID,0,VALID,100,VALID,-0.0679233,VALID,17.7177,VALID,153,VALID,0
2009-05-21, 00:48:00,VALID,917.106,VALID,0,VALID,100,VALID,-0.0339617,VALID,17.6857,VALID,154,VALID,0.000952744
2009-05-21, 00:49:00,VALID,917.106,VALID,0,VALID,100,VALID,-0.0169808,VALID,17.6494,VALID,153,VALID,0.0743963
2009-05-21, 00:50:00,VALID,917.096,VALID,0,VALID,100,VALID,-0.101885,VALID,17.6396,VALID,155,VALID,0.120994
2009-05-21, 00:51:00,VALID,917.102,VALID,0,VALID,100,VALID,-0.0679233,VALID,17.6565,VALID,161,VALID,0.000744048
2009-05-21, 00:52:00,VALID,917.087,VALID,0,VALID,100,VALID,-0.101885,VALID,17.6466,VALID,160,VALID,0.000363372
2009-05-21, 00:53:00,VALID,917.086,VALID,0,VALID,100,VALID,-0.0509425,VALID,17.6401,VALID,154,VALID,0
2009-05-21, 00:54:00,VALID,917.087,VALID,0,VALID,100,VALID,-0.0339617,VALID,17.6074,VALID,153,VALID,0
2009-05-21, 00:55:00,VALID,917.083,VALID,0,VALID,100,VALID,-0.0169808,VALID,17.5813,VALID,152,VALID,0
2009-05-21, 00:56:00,VALID,917.085,VALID,0,VALID,100,VALID,-0.0509425,VALID,17.5264,VALID,136,VALID,0
2009-05-21, 00:57:00,VALID,917.07,VALID,0,VALID,100,VALID,-0.0679233,VALID,17.5365,VALID,134,VALID,0
2009-05-21, 00:58:00,VALID,917.051,VALID,0,VALID,100,VALID,-0.0849042,VALID,17.5724,VALID,134,VALID,0
2009-05-21, 00:59:00,VALID,917.04,VALID,0,VALID,100,VALID,-0.0849042,VALID,17.5692,VALID,134,VALID,0
2009-05-21, 01:00:00,VALID,917.019,VALID,0,VALID,100,VALID,-0.0849042,VALID,17.5588,VALID,134,VALID,0
2009-05-21, 01:01:00,VALID,916.991,VALID,0,VALID,100,VALID,-0.0339617,VALID,17.5917,VALID,137,VALID,0
2009-05-21, 01:02:00,VALID,916.965,VALID,0,VALID,100,VALID,-0.0509425,VALID,17.5847,VALID,155,VALID,0
2009-05-21, 01:03:00,VALID,916.939,VALID,0,VALID,100,VALID,-0.0339617,VALID,17.5882,VALID,160,VALID,0
2009-05-21, 01:04:00,VALID,916.917,VALID,0,VALID,100,VALID,-0.0509425,VALID,17.5787,VALID,160,VALID,0
2009-05-21, 01:05:00,VALID,916.889,VALID,0,VALID,100,VALID,-0.0509425,VALID,17.5783,VALID,160,VALID,0
2009-05-21, 01:06:00,VALID,916.876,VALID,0,VALID,100,VALID,-0.0679233,VALID,17.5914,VALID,157,VALID,0
2009-05-21, 01:07:00,VALID,916.843,VALID,0,VALID,100,VALID,-0.0509425,VALID,17.572,VALID,154,VALID,0
2009-05-21, 01:08:00,VALID,916.838,VALID,0,VALID,100,VALID,-0.101885,VALID,17.5592,VALID,153,VALID,0
2009-05-21, 01:09:00,VALID,916.815,VALID,0,VALID,100,VALID,-0.0339617,VALID,17.5458,VALID,149,VALID,0
2009-05-21, 01:10:00,VALID,916.799,VALID,0,VALID,100,VALID,-0.0339617,VALID,17.5194,VALID,147,VALID,0
2009-05-21, 01:11:00,VALID,916.78,VALID,0,VALID,100,VALID,-0.0509425,VALID,17.5099,VALID,148,VALID,0
2009-05-21, 01:12:00,VALID,916.772,VALID,0,VALID,100,VALID,-0.0509425,VALID,17.5199,VALID,152,VALID,0
2009-05-21, 01:13:00,VALID,916.778,VALID,0,VALID,100,VALID,-0.0509425,VALID,17.5233,VALID,160,VALID,0
2009-05-21, 01:14:00,VALID,916.774,VALID,0,VALID,100,VALID,-0.0339617,VALID,17.4972,VALID,158,VALID,0.0745046
2009-05-21, 01:15:00,VALID,916.763,VALID,0,VALID,100,VALID,-0.0509425,VALID,17.4939,VALID,152,VALID,0.047247
2009-05-21, 01:16:00,VALID,916.716,VALID,0,VALID,100,VALID,-0.0169808,VALID,17.4388,VALID,148,VALID,0.190505
2009-05-21, 01:17:00,VALID,916.684,VALID,0,VALID,100,VALID,-0.0849042,VALID,17.377,VALID,144,VALID,0.0511533
2009-05-21, 01:18:00,VALID,916.663,VALID,0,VALID,100,VALID,-0.0339617,VALID,17.3186,VALID,142,VALID,0.0359738
2009-05-21, 01:19:00,VALID,916.636,VALID,0,VALID,100,VALID,-0.0169808,VALID,17.2538,VALID,148,VALID,0.0956003
2009-05-21, 01:20:00,VALID,916.621,VALID,0,VALID,100,VALID,-0.0339617,VALID,17.2343,VALID,144,VALID,0.0926339
2009-05-21, 01:21:00,VALID,916.611,VALID,0,VALID,100,VALID,-0.0679233,VALID,17.2214,VALID,142,VALID,0.00486111
2009-05-21, 01:22:00,VALID,916.608,VALID,0,VALID,100,VALID,-0.0169808,VALID,17.1989,VALID,146,VALID,0.0172276
2009-05-21, 01:23:00,VALID,916.602,VALID,0,VALID,100,VALID,-0.0169808,VALID,17.1691,VALID,150,VALID,0.0802734
2009-05-21, 01:24:00,VALID,916.591,VALID,0,VALID,100,VALID,-0.0509425,VALID,17.1565,VALID,140,VALID,0.00520833
2009-05-21, 01:25:00,VALID,916.603,VALID,0,VALID,100,VALID,-0.0169808,VALID,17.1206,VALID,138,VALID,0
2009-05-21, 01:26:00,VALID,916.604,VALID,0,VALID,100,VALID,-0.0169808,VALID,17.1142,VALID,146,VALID,0.224144
2009-05-21, 01:27:00,VALID,916.628,VALID,0,VALID,100,VALID,0,VALID,17.1371,VALID,155,VALID,0.130469
2009-05-21, 01:28:00,VALID,916.636,VALID,0,VALID,100,VALID,0,VALID,17.1695,VALID,155,VALID,0.0259811
2009-05-21, 01:29:00,VALID,916.636,VALID,0,VALID,100,VALID,0,VALID,17.176,VALID,155,VALID,0
2009-05-21, 01:30:00,VALID,916.659,VALID,0,VALID,100,VALID,0,VALID,17.1792,VALID,154,VALID,0.000173611
2009-05-21, 01:31:00,VALID,916.644,VALID,0,VALID,100,VALID,-0.0169808,VALID,17.1825,VALID,152,VALID,0.00126689
2009-05-21, 01:32:00,VALID,916.667,VALID,0,VALID,100,VALID,-0.0339617,VALID,17.2017,VALID,149,VALID,0
2009-05-21, 01:33:00,VALID,916.688,VALID,0,VALID,100,VALID,-0.0509425,VALID,17.2119,VALID,154,VALID,0.00111607
2009-05-21, 01:34:00,VALID,916.699,VALID,0,VALID,100,VALID,-0.0169808,VALID,17.2281,VALID,154,VALID,0.00109012
2009-05-21, 01:35:00,VALID,916.71,VALID,0,VALID,100,VALID,-0.0339617,VALID,17.1889,VALID,146,VALID,0.00111607
2009-05-21, 01:36:00,VALID,916.727,VALID,0,VALID,100,VALID,-0.0169808,VALID,17.1628,VALID,161,VALID,0.0025436
2009-05-21, 01:37:00,VALID,916.739,VALID,0,VALID,100,VALID,-0.0509425,VALID,17.1727,VALID,154,VALID,0.00833333
2009-05-21, 01:38:00,VALID,916.723,VALID,0,VALID,100,VALID,-0.0339617,VALID,17.1855,VALID,151,VALID,0.0641741
2009-05-21, 01:39:00,VALID,916.709,VALID,0,VALID,100,VALID,-0.0169808,VALID,17.1889,VALID,154,VALID,0.0476562
2009-05-21, 01:40:00,VALID,916.693,VALID,0,VALID,100,VALID,-0.0509425,VALID,17.1954,VALID,149,VALID,0.0557292
2009-05-21, 01:41:00,VALID,916.661,VALID,0,VALID,100,VALID,-0.0679233,VALID,17.1859,VALID,143,VALID,0
2009-05-21, 01:42:00,VALID,916.644,VALID,0,VALID,100,VALID,-0.0509425,VALID,17.1632,VALID,134,VALID,0
2009-05-21, 01:43:00,VALID,916.618,VALID,0,VALID,100,VALID,0,VALID,17.1271,VALID,146,VALID,0.00111607
2009-05-21, 01:44:00,VALID,916.609,VALID,0,VALID,100,VALID,0,VALID,17.1079,VALID,149,VALID,0
2009-05-21, 01:45:00,VALID,916.594,VALID,0,VALID,100,VALID,-0.0169808,VALID,17.1014,VALID,145,VALID,0.0398638
2009-05-21, 01:46:00,VALID,916.598,VALID,0,VALID,100,VALID,-0.0169808,VALID,17.0718,VALID,149,VALID,0
2009-05-21, 01:47:00,VALID,916.605,VALID,0,VALID,100,VALID,-0.0169808,VALID,17.0625,VALID,151,VALID,0.00111607
2009-05-21, 01:48:00,VALID,916.59,VALID,0,VALID,100,VALID,-0.0509425,VALID,17.0627,VALID,150,VALID,0.078125
2009-05-21, 01:49:00,VALID,916.603,VALID,0,VALID,100,VALID,-0.0339617,VALID,17.0655,VALID,139,VALID,0.39596
2009-05-21, 01:50:00,VALID,916.601,VALID,0,VALID,100,VALID,-0.0169808,VALID,17.075,VALID,143,VALID,0.129192
2009-05-21, 01:51:00,VALID,916.582,VALID,0,VALID,100,VALID,-0.0169808,VALID,17.0785,VALID,143,VALID,0.150343
2009-05-21, 01:52:00,VALID,916.569,VALID,0,VALID,100,VALID,-0.0509425,VALID,17.0755,VALID,138,VALID,0.139453
2009-05-21, 01:53:00,VALID,916.554,VALID,0,VALID,100,VALID,-0.0509425,VALID,17.0787,VALID,143,VALID,0.104992
2009-05-21, 01:54:00,VALID,916.562,VALID,0,VALID,100,VALID,-0.0509425,VALID,17.0755,VALID,139,VALID,0.241443
2009-05-21, 01:55:00,VALID,916.544,VALID,0,VALID,100,VALID,-0.0169808,VALID,17.0949,VALID,143,VALID,0.360156
2009-05-21, 01:56:00,VALID,916.539,VALID,0,VALID,100,VALID,-0.0339617,VALID,17.1204,VALID,148,VALID,0.114769
2009-05-21, 01:57:00,VALID,916.524,VALID,0,VALID,99.9173,VALID,0.0169808,VALID,17.1561,VALID,145,VALID,0.304514
2009-05-21, 01:58:00,VALID,916.523,VALID,0,VALID,99.6366,VALID,-0.0169808,VALID,17.1691,VALID,149,VALID,0.0731027
2009-05-21, 01:59:00,VALID,916.503,VALID,0,VALID,99.3225,VALID,-0.0679233,VALID,17.1922,VALID,143,VALID,0.227653
2009-05-21, 02:00:00,VALID,916.492,VALID,0,VALID,99.0911,VALID,-0.0509425,VALID,17.2116,VALID,145,VALID,0.019077
2009-05-21, 02:01:00,VALID,916.495,VALID,0,VALID,98.8278,VALID,-0.0339617,VALID,17.2017,VALID,147,VALID,0.00114329
2009-05-21, 02:02:00,VALID,916.491,VALID,0,VALID,98.6498,VALID,-0.0169808,VALID,17.182,VALID,145,VALID,0.0765625
2009-05-21, 02:03:00,VALID,916.489,VALID,0,VALID,98.5913,VALID,-0.0339617,VALID,17.1954,VALID,143,VALID,0
2009-05-21, 02:04:00,VALID,916.494,VALID,0,VALID,98.5405,VALID,0,VALID,17.1924,VALID,151,VALID,0
2009-05-21, 02:05:00,VALID,916.505,VALID,0,VALID,98.5417,VALID,-0.0339617,VALID,17.1596,VALID,150,VALID,0
2009-05-21, 02:06:00,VALID,916.504,VALID,0,VALID,98.6663,VALID,0,VALID,17.1362,VALID,147,VALID,0
2009-05-21, 02:07:00,VALID,916.509,VALID,0,VALID,98.9219,VALID,-0.0169808,VALID,17.1399,VALID,146,VALID,0
2009-05-21, 02:08:00,VALID,916.515,VALID,0,VALID,99.1,VALID,-0.0169808,VALID,17.1338,VALID,140,VALID,0
2009-05-21, 02:09:00,VALID,916.528,VALID,0,VALID,99.1826,VALID,-0.0509425,VALID,17.1273,VALID,146,VALID,0
2009-05-21, 02:10:00,VALID,916.55,VALID,0,VALID,99.2398,VALID,-0.0509425,VALID,17.1144,VALID,145,VALID,0.00114329
2009-05-21, 02:11:00,VALID,916.57,VALID,0,VALID,99.2538,VALID,-0.0679233,VALID,17.1047,VALID,146,VALID,0.0396341
2009-05-21, 02:12:00,VALID,916.554,VALID,0,VALID,99.1902,VALID,-0.0509425,VALID,17.0949,VALID,146,VALID,0.000976563
2009-05-21, 02:13:00,VALID,916.565,VALID,0,VALID,99.2017,VALID,-0.101885,VALID,17.0919,VALID,153,VALID,0.1143
2009-05-21, 02:14:00,VALID,916.542,VALID,0,VALID,99.0644,VALID,-0.0849042,VALID,17.0917,VALID,145,VALID,0.131324
2009-05-21, 02:15:00,VALID,916.539,VALID,0,VALID,98.9639,VALID,-0.101885,VALID,17.1049,VALID,138,VALID,0.26726
2009-05-21, 02:16:00,VALID,916.534,VALID,0,VALID,98.9181,VALID,-0.0679233,VALID,17.1209,VALID,137,VALID,0.220313
2009-05-21, 02:17:00,VALID,916.523,VALID,0,VALID,98.7477,VALID,-0.118866,VALID,17.1503,VALID,140,VALID,0.0625
2009-05-21, 02:18:00,VALID,916.509,VALID,0,VALID,98.6269,VALID,-0.0679233,VALID,17.1632,VALID,134,VALID,0.0840774
2009-05-21, 02:19:00,VALID,916.507,VALID,0,VALID,98.5214,VALID,0,VALID,17.1779,VALID,134,VALID,0.177024
2009-05-21, 02:20:00,VALID,916.522,VALID,0,VALID,98.3497,VALID,0.0169808,VALID,17.2073,VALID,132,VALID,0.0888445
2009-05-21, 02:21:00,VALID,916.526,VALID,0,VALID,98.1844,VALID,0.0509425,VALID,17.1941,VALID,132,VALID,0.291424
2009-05-21, 02:22:00,VALID,916.547,VALID,0,VALID,98.0636,VALID,0,VALID,17.1747,VALID,131,VALID,0.159157
2009-05-21, 02:23:00,VALID,916.549,VALID,0,VALID,98.089,VALID,0.0679233,VALID,17.1712,VALID,131,VALID,0.124818
2009-05-21, 02:24:00,VALID,916.559,VALID,0,VALID,97.9555,VALID,-0.0849042,VALID,17.1954,VALID,136,VALID,0
2009-05-21, 02:25:00,VALID,916.553,VALID,0,VALID,97.7851,VALID,-0.101885,VALID,17.2024,VALID,139,VALID,0
2009-05-21, 02:26:00,VALID,916.553,VALID,0,VALID,97.766,VALID,-0.118866,VALID,17.1762,VALID,134,VALID,0.519985
2009-05-21, 02:27:00,VALID,916.556,VALID,0,VALID,97.766,VALID,-0.0679233,VALID,17.1663,VALID,128,VALID,0.0828488
2009-05-21, 02:28:00,VALID,916.559,VALID,0,VALID,97.7737,VALID,-0.0509425,VALID,17.1371,VALID,125,VALID,0.0614583
2009-05-21, 02:29:00,VALID,916.566,VALID,0,VALID,97.7266,VALID,-0.0509425,VALID,17.1111,VALID,122,VALID,0
2009-05-21, 02:30:00,VALID,916.573,VALID,0,VALID,97.6885,VALID,-0.0679233,VALID,17.0755,VALID,120,VALID,0
2009-05-21, 02:31:00,VALID,916.565,VALID,0,VALID,97.5944,VALID,-0.0509425,VALID,17.072,VALID,120,VALID,0.057492
2009-05-21, 02:32:00,VALID,916.583,VALID,0,VALID,97.3579,VALID,-0.0509425,VALID,17.0852,VALID,119,VALID,0
2009-05-21, 02:33:00,VALID,916.566,VALID,0,VALID,97.0857,VALID,-0.0849042,VALID,17.0982,VALID,125,VALID,0.0896484
2009-05-21, 02:34:00,VALID,916.563,VALID,0,VALID,96.8721,VALID,-0.101885,VALID,17.1016,VALID,126,VALID,0.150391
2009-05-21, 02:35:00,VALID,916.574,VALID,0,VALID,96.6788,VALID,-0.101885,VALID,17.1081,VALID,130,VALID,0.188802
2009-05-21, 02:36:00,VALID,916.57,VALID,0,VALID,96.4995,VALID,-0.101885,VALID,17.1345,VALID,136,VALID,0.266827
2009-05-21, 02:37:00,VALID,916.572,VALID,0,VALID,96.3393,VALID,-0.0509425,VALID,17.1271,VALID,138,VALID,0.0607851
2009-05-21, 02:38:00,VALID,916.566,VALID,0,VALID,96.3139,VALID,-0.0849042,VALID,17.1079,VALID,128,VALID,0.23628
2009-05-21, 02:39:00,VALID,916.567,VALID,0,VALID,96.3851,VALID,-0.0849042,VALID,17.1239,VALID,131,VALID,0.550521
2009-05-21, 02:40:00,VALID,916.569,VALID,0,VALID,96.2541,VALID,-0.0849042,VALID,17.15,VALID,134,VALID,0.22603
2009-05-21, 02:41:00,VALID,916.566,VALID,0,VALID,96.2363,VALID,-0.101885,VALID,17.1403,VALID,134,VALID,0.455305
2009-05-21, 02:42:00,VALID,916.561,VALID,0,VALID,96.3457,VALID,-0.0339617,VALID,17.1366,VALID,135,VALID,0.398438
2009-05-21, 02:43:00,VALID,916.562,VALID,0,VALID,96.319,VALID,-0.0679233,VALID,17.1371,VALID,134,VALID,0.242369
2009-05-21, 02:44:00,VALID,916.562,VALID,0,VALID,96.3139,VALID,-0.0509425,VALID,17.1174,VALID,132,VALID,0.120617
2009-05-21, 02:45:00,VALID,916.546,VALID,0,VALID,96.3622,VALID,-0.0679233,VALID,17.0908,VALID,130,VALID,0.164825
2009-05-21, 02:46:00,VALID,916.565,VALID,0,VALID,96.324,VALID,-0.0169808,VALID,17.1109,VALID,126,VALID,0.311523
2009-05-21, 02:47:00,VALID,916.568,VALID,0,VALID,96.3062,VALID,-0.0169808,VALID,17.1267,VALID,127,VALID,0.0904018
2009-05-21, 02:48:01,VALID,916.568,VALID,0,VALID,96.3317,VALID,-0.0679233,VALID,17.1433,VALID,131,VALID,0.498197
2009-05-21, 02:49:01,VALID,916.573,VALID,0,VALID,96.3329,VALID,-0.0169808,VALID,17.1723,VALID,131,VALID,0.829901
2009-05-21, 02:50:00,VALID,916.567,VALID,0,VALID,96.2617,VALID,-0.0339617,VALID,17.189,VALID,132,VALID,0.296303
2009-05-21, 02:51:01,VALID,916.574,VALID,0,VALID,96.2973,VALID,-0.0509425,VALID,17.1433,VALID,135,VALID,0.0130208
2009-05-21, 02:52:00,VALID,916.569,VALID,0,VALID,96.4677,VALID,0,VALID,17.0938,VALID,130,VALID,0.391555
2009-05-21, 02:53:00,VALID,916.567,VALID,0,VALID,96.6407,VALID,-0.0169808,VALID,17.1008,VALID,132,VALID,0.546503
2009-05-21, 02:54:00,VALID,916.574,VALID,0,VALID,96.6776,VALID,-0.0339617,VALID,17.107,VALID,131,VALID,0.163491
2009-05-21, 02:55:00,VALID,916.577,VALID,0,VALID,96.8874,VALID,-0.0509425,VALID,17.0813,VALID,135,VALID,0.14974
2009-05-21, 02:56:01,VALID,916.585,VALID,0,VALID,97.101,VALID,-0.0509425,VALID,17.0426,VALID,133,VALID,0.206473
2009-05-21, 02:57:00,VALID,916.575,VALID,0,VALID,97.2231,VALID,-0.0849042,VALID,17.0331,VALID,133,VALID,0.242188
2009-05-21, 02:58:00,VALID,916.567,VALID,0,VALID,97.1099,VALID,-0.0679233,VALID,17.0787,VALID,135,VALID,0.475074
2009-05-21, 02:59:00,VALID,916.555,VALID,0,VALID,96.9001,VALID,0,VALID,17.1271,VALID,133,VALID,0.139569
2009-05-21, 03:00:00,VALID,916.542,VALID,0,VALID,96.9904,VALID,-0.0169808,VALID,17.1626,VALID,133,VALID,0.527734
2009-05-21, 03:01:01,VALID,916.539,VALID,0,VALID,96.8607,VALID,-0.0169808,VALID,17.2276,VALID,134,VALID,0.338601
2009-05-21, 03:02:00,VALID,916.529,VALID,0,VALID,96.7081,VALID,-0.101885,VALID,17.257,VALID,138,VALID,0.112995
2009-05-21, 03:03:01,VALID,916.526,VALID,0,VALID,96.5987,VALID,-0.0679233,VALID,17.2376,VALID,140,VALID,0.107777
2009-05-21, 03:04:01,VALID,916.516,VALID,0,VALID,96.8251,VALID,-0.0339617,VALID,17.2047,VALID,143,VALID,0.0521439
2009-05-21, 03:05:00,VALID,916.492,VALID,0,VALID,97.1201,VALID,-0.0509425,VALID,17.1915,VALID,137,VALID,0
2009-05-21, 03:06:00,VALID,916.482,VALID,0,VALID,97.2663,VALID,-0.0169808,VALID,17.1885,VALID,136,VALID,0.00114329
2009-05-21, 03:07:00,VALID,916.461,VALID,0,VALID,97.4342,VALID,-0.0679233,VALID,17.1559,VALID,139,VALID,0.0373884
2009-05-21, 03:08:01,VALID,916.46,VALID,0,VALID,97.6707,VALID,-0.0509425,VALID,17.1524,VALID,125,VALID,0.0355114
2009-05-21, 03:09:01,VALID,916.44,VALID,0,VALID,97.6745,VALID,-0.0169808,VALID,17.1529,VALID,137,VALID,0
2009-05-21, 03:10:00,VALID,916.432,VALID,0,VALID,97.8614,VALID,-0.0169808,VALID,17.1593,VALID,144,VALID,0
2009-05-21, 03:11:01,VALID,916.419,VALID,0,VALID,97.8792,VALID,-0.0169808,VALID,17.2019,VALID,143,VALID,0
2009-05-21, 03:12:00,VALID,916.403,VALID,0,VALID,97.747,VALID,-0.0679233,VALID,17.257,VALID,139,VALID,0
2009-05-21, 03:13:01,VALID,916.394,VALID,0,VALID,97.5346,VALID,-0.0169808,VALID,17.2724,VALID,142,VALID,0
2009-05-21, 03:14:00,VALID,916.373,VALID,0,VALID,97.3884,VALID,-0.0509425,VALID,17.2828,VALID,138,VALID,0.0798234
2009-05-21, 03:15:00,VALID,916.379,VALID,0,VALID,97.3871,VALID,-0.0339617,VALID,17.2953,VALID,140,VALID,0.0024858
2009-05-21, 03:16:00,VALID,916.384,VALID,0,VALID,97.3502,VALID,0,VALID,17.3281,VALID,135,VALID,0
2009-05-21, 03:17:00,VALID,916.379,VALID,0,VALID,97.3388,VALID,-0.0339617,VALID,17.3573,VALID,124,VALID,0
2009-05-21, 03:18:00,VALID,916.383,VALID,0,VALID,97.2968,VALID,-0.0679233,VALID,17.3735,VALID,113,VALID,0
2009-05-21, 03:19:01,VALID,916.389,VALID,0,VALID,97.2561,VALID,-0.0339617,VALID,17.3699,VALID,111,VALID,0
2009-05-21, 03:20:00,VALID,916.362,VALID,0,VALID,97.246,VALID,-0.0509425,VALID,17.383,VALID,114,VALID,0
2009-05-21, 03:21:00,VALID,916.348,VALID,0,VALID,97.1671,VALID,-0.0509425,VALID,17.377,VALID,115,VALID,0
2009-05-21, 03:22:00,VALID,916.34,VALID,0,VALID,97.1455,VALID,-0.0679233,VALID,17.3573,VALID,115,VALID,0
2009-05-21, 03:23:00,VALID,916.323,VALID,0,VALID,96.9319,VALID,-0.0169808,VALID,17.3413,VALID,115,VALID,0
2009-05-21, 03:24:00,VALID,916.324,VALID,0,VALID,96.8187,VALID,-0.0679233,VALID,17.2601,VALID,115,VALID,0
2009-05-21, 03:25:00,VALID,916.33,VALID,0,VALID,97.0997,VALID,-0.0509425,VALID,17.1989,VALID,115,VALID,0
2009-05-21, 03:26:01,VALID,916.347,VALID,0,VALID,97.2828,VALID,-0.101885,VALID,17.1468,VALID,115,VALID,0
2009-05-21, 03:27:00,VALID,916.368,VALID,0,VALID,97.4558,VALID,-0.0679233,VALID,17.0787,VALID,119,VALID,0
2009-05-21, 03:28:01,VALID,916.388,VALID,0,VALID,97.7699,VALID,-0.0339617,VALID,17.0528,VALID,124,VALID,0
2009-05-21, 03:29:00,VALID,916.418,VALID,0,VALID,98.0878,VALID,-0.0169808,VALID,17.0524,VALID,129,VALID,0
2009-05-21, 03:30:00,VALID,916.429,VALID,0,VALID,98.1335,VALID,-0.0849042,VALID,17.0852,VALID,143,VALID,0
2009-05-21, 03:31:00,VALID,916.431,VALID,0,VALID,98.1819,VALID,-0.0679233,VALID,17.1014,VALID,148,VALID,0
2009-05-21, 03:32:01,VALID,916.431,VALID,0,VALID,98.1246,VALID,-0.0509425,VALID,17.1241,VALID,136,VALID,0
2009-05-21, 03:33:01,VALID,916.426,VALID,0,VALID,97.8767,VALID,-0.0849042,VALID,17.0917,VALID,134,VALID,0
2009-05-21, 03:34:00,VALID,916.402,VALID,0,VALID,97.8996,VALID,-0.0339617,VALID,17.056,VALID,135,VALID,0
2009-05-21, 03:35:00,VALID,916.402,VALID,0,VALID,98.0738,VALID,-0.101885,VALID,17.0303,VALID,133,VALID,0
2009-05-21, 03:36:00,VALID,916.402,VALID,0,VALID,98.2442,VALID,-0.0339617,VALID,17.0137,VALID,133,VALID,0
2009-05-21, 03:37:00,VALID,916.413,VALID,0,VALID,98.2976,VALID,-0.0509425,VALID,16.9975,VALID,133,VALID,0
2009-05-21, 03:38:00,VALID,916.432,VALID,0,VALID,98.3599,VALID,-0.0679233,VALID,16.9877,VALID,133,VALID,0
2009-05-21, 03:39:01,VALID,916.423,VALID,0,VALID,98.3968,VALID,0.0169808,VALID,16.9707,VALID,133,VALID,0
2009-05-21, 03:40:00,VALID,916.448,VALID,0,VALID,98.4133,VALID,0,VALID,16.9542,VALID,133,VALID,0